Regional Weather Roundup
Issued by NWS

Home | Current Version | Previous Version | Text Only | Print | Product List | Glossary On
Versions: 1 2 3 4 5 6 7 8 9 10 11 12 13 14 15 16 17 18 19 20 21 22 23 24 25 26 27 28 29
000
ASCA42 TJSJ 250910
RWRPR
PUERTO RICO/U.S. VIRGIN ISLANDS HOURLY WEATHER ROUNDUP
NATIONAL WEATHER SERVICE SAN JUAN PR
500 AM AST WED MAY 25 2016

PRZ001-004-251000-
PUERTO RICO

CITY           SKY/WX    TMP DP  RH WIND       PRES   REMARKS
SAN JUAN LMM   PTCLDY    79  75  89 SE5       30.07S
PONCE          PTCLDY    73  70  88 CALM      30.03F
CEIBA          PTCLDY    79  73  83 E3        30.09S
$$

PRZ006-007-251000-
U.S. VIRGIN ISLANDS

CITY           SKY/WX    TMP DP  RH WIND       PRES   REMARKS
CHARLOTTE AMA  CLEAR     81  73  78 E8        30.07S
CHRISTIANSTED  PTCLDY    79  72  78 NE5       30.07F
$$

HOURLY WEATHER ROUNDUP FOR THE NEWS MEDIA

CITY           SKY/WX    TMP DP  RH WIND       PRES   REMARKS
ORLANDO        PTCLDY    72  63  73 E6        30.16F
NEW YORK       CLEAR     60  53  77 W5        30.03R
NEWARK         CLEAR     58  51  78 CALM      30.02R
CHICAGO        MOCLDY    70  61  73 SW7       29.99R
HARTFORD       CLOUDY    54  53  97 W5        30.00R
BOSTON         CLOUDY    54  52  93 CALM      30.00S
DALLAS         CLOUDY    78  71  79 S14       29.93R
PHILADELPHIA   PTCLDY    59  52  77 CALM      30.06S
LOS ANGELES    MOCLDY    58  52  80 W6        30.04F
WASHINGTON DC  FAIR      53  51  93 CALM      30.11R



USA.gov is the U.S. government's official web portal to all federal, state and local government web resources and services.